User: anonymous   Login
Location: Chuathbaluk
(61.5726°N, 159.2454°W)
Time: 22:53:03
(UTC+00:00)
Language:

A-11 Canister half - Orbit

View from above orbital plane
View from above orbital plane
View from above satellite
View from above satellite

Ground track
Ground track

The orbit data is extracted from the following two-line orbital elements,

1    51U 60009C   20330.08335256 -.00000099 +00000-0 -14994-3 0  9991
2    51 047.2112 210.4708 0105570 281.8656 077.0310 12.18272299683672
Epoch (UTC): 25 November 2020 02:00:01
Eccentricity: 0.0105570
inclination: 47.2112°
perigee height: 1516 km
apogee height: 1684 km
right ascension of ascending node: 210.4708°
argument of perigee: 281.8656°
revolutions per day: 12.18272299
mean anomaly at epoch: 77.0310°
orbit number at epoch: 68367

The dashed part of the orbit path shows where the satellite is in the earth's shadow,  

DLR